User: anonymous   Login
Location: UBC Liquid-Mirror Observatory
(49.2876°N, 122.5728°W)
Time: 08:56:08
(UTC-07:00)
Language:

KITSAT 1 - Orbit

View from above orbital plane
View from above orbital plane
View from above satellite
View from above satellite

Ground track
Ground track

The orbit data is extracted from the following two-line orbital elements,

1 22077U 92052B   15210.46425116 -.00000063  00000-0 -46902-5 0  9991
2 22077 066.0868 329.1883 0013059 303.4195 131.1225 12.86506654 78790
Epoch (UTC): 29 July 2015 11:08:31
Eccentricity: 0.0013059
inclination: 66.0868°
perigee height: 1305 km
apogee height: 1325 km
right ascension of ascending node: 329.1883°
argument of perigee: 303.4195°
revolutions per day: 12.86506654
mean anomaly at epoch: 131.1225°
orbit number at epoch: 7879

The dashed part of the orbit path shows where the satellite is in the earth's shadow,  

DLR